Weather History for KTYS - January, 2014

Change the Weather History Date:

Friday, January 24, 2014

  Actual Average Record
Temperature  
Mean Temperature 17 °F 38 °F  
Max Temperature 28 °F 48 °F 74 °F (1950)
Min Temperature 5 °F 29 °F -6 °F (1963)
Degree Days  
Heating Degree Days 48 27  
Month to date heating degree days 762 648  
Since 1 July heating degree days 2121 2081  
Cooling Degree Days 0 0  
Month to date cooling degree days 0 0  
Year to date cooling degree days 0 0  
Moisture  
Dew Point -3 °F    
Average Humidity 46    
Maximum Humidity 69    
Minimum Humidity 23    
Precipitation  
Precipitation 0.00 in 0.14 in 2.39 in (2010)
Month to date precipitation 2.97 3.35  
Year to date precipitation 2.97 3.35  
Snow  
Snow 0.00 in 0.10 in - ()
Month to date snowfall 0.7 2.1  
Since 1 July snowfall 1.5 2.9  
Snow Depth -    
Sea Level Pressure  
Sea Level Pressure 30.51 in    
Wind  
Wind Speed 6 mph (West)    
Max Wind Speed 18 mph    
Max Gust Speed 21 mph    
Visibility 10 miles    
Events      
T = Trace of Precipitation, MM = Missing Value Source: NWS Daily Summary

Daily Weather History Graph

Daily Weather History Graph

Search for Another Location

Airport or City:

Trip Planner

Search our weather history database for the weather conditions in past years. The results will help you decide how hot, cold, wet, or windy it might be!

Date:

Astronomy

Jan. 24, 2014 Rise Set
Actual Time 7:41 AM EST 5:54 PM EST
Civil Twilight 7:14 AM EST 6:22 PM EST
Nautical Twilight 6:43 AM EST 6:53 PM EST
Astronomical Twilight 6:12 AM EST 7:23 PM EST
Moon 1:10 AM EST (1/24) 12:10 PM EST (1/24)
Length of Visible Light 11h 08m
Length of Day
10h 13m
Last Quarter, 45% of the Moon is Illuminated
Jan 24
Last Quarter
Jan 30
New
Feb 6
First Quarter
Feb 14
Full
Feb 22
Last Quarter

Hourly Weather History & Observations

Time (EST) Temp. Windchill Dew Point Humidity Pressure Visibility Wind Dir Wind Speed Gust Speed Precip Events Conditions
12:53 AM 12.0 °F 2.7 °F -2.9 °F 51% 30.64 in 10.0 mi North 5.8 mph - N/A   Mostly Cloudy
1:53 AM 10.9 °F -1.8 °F -2.9 °F 54% 30.66 in 10.0 mi North 9.2 mph - N/A   Scattered Clouds
2:53 AM 10.0 °F -0.9 °F -2.9 °F 56% 30.69 in 10.0 mi NNE 6.9 mph - N/A   Clear
3:53 AM 9.0 °F 0.6 °F -2.9 °F 59% 30.70 in 10.0 mi North 4.6 mph - N/A   Clear
4:53 AM 6.1 °F -0.9 °F -2.9 °F 67% 30.69 in 10.0 mi ENE 3.5 mph - N/A   Clear
5:53 AM 6.1 °F -2.8 °F -2.0 °F 69% 30.67 in 10.0 mi ENE 4.6 mph - N/A   Clear
7:53 AM 6.1 °F - -2.9 °F 67% 30.66 in 10.0 mi Calm Calm - N/A   Clear
8:53 AM 10.0 °F 3.6 °F -2.0 °F 58% 30.65 in 10.0 mi North 3.5 mph - N/A   Clear
9:53 AM 10.9 °F - -2.0 °F 56% 30.67 in 10.0 mi Calm Calm - N/A   Clear
10:53 AM 14.0 °F 5.1 °F -0.9 °F 52% 30.67 in 10.0 mi SSW 5.8 mph - N/A   Clear
11:53 AM 18.0 °F 12.7 °F -0.9 °F 44% 30.63 in 10.0 mi Variable 3.5 mph - N/A   Clear
12:53 PM 21.0 °F - -2.9 °F 35% 30.57 in 10.0 mi Calm Calm - N/A   Clear
1:53 PM 24.1 °F - -7.1 °F 25% 30.51 in 10.0 mi Calm Calm - N/A   Clear
2:53 PM 26.1 °F 18.4 °F -8.0 °F 22% 30.45 in 10.0 mi WSW 6.9 mph - N/A   Clear
3:53 PM 27.0 °F 20.5 °F -6.0 °F 24% 30.42 in 10.0 mi Variable 5.8 mph - N/A   Partly Cloudy
4:53 PM 27.0 °F 18.0 °F -5.1 °F 25% 30.40 in 10.0 mi WSW 9.2 mph - N/A   Partly Cloudy
5:53 PM 24.1 °F 16.0 °F -5.1 °F 28% 30.37 in 10.0 mi WSW 6.9 mph - N/A   Partly Cloudy
6:53 PM 23.0 °F 18.4 °F -5.1 °F 29% 30.34 in 10.0 mi SW 3.5 mph - N/A   Partly Cloudy
7:53 PM 19.0 °F 11.1 °F -2.0 °F 40% 30.33 in 10.0 mi SW 5.8 mph - N/A   Partly Cloudy
8:53 PM 18.0 °F 12.7 °F -2.0 °F 41% 30.26 in 10.0 mi SW 3.5 mph - N/A   Partly Cloudy
9:53 PM 19.9 °F 7.3 °F -2.9 °F 37% 30.24 in 10.0 mi West 12.7 mph - N/A   Partly Cloudy
10:53 PM 19.9 °F 7.9 °F -2.0 °F 38% 30.24 in 10.0 mi WSW 11.5 mph - N/A   Clear
11:53 PM 23.0 °F 9.2 °F -2.0 °F 34% 30.19 in 10.0 mi WSW 17.3 mph - N/A   Partly Cloudy